{"data":{"norad_id":45603,"epoch":"2026-05-25T03:33:59.275872Z","epoch_age_seconds":65435,"freshness":"FRESH","line1":"1 45603U 20028B   26145.14860273  .00002375  00000+0  14415-3 0  9993","line2":"2 45603  97.5080 151.5472 0011072   0.2469 359.8765 15.11430282331351","mean_motion":15.11430282,"eccentricity":0.0011072,"inclination_deg":97.508,"raan_deg":151.5472,"arg_perigee_deg":0.2469,"mean_anomaly_deg":359.8765,"bstar":0.00014415,"rev_number":33135,"period_min":95.273994252287,"perigee_km":524.18651923614,"apogee_km":539.48796619921,"semimajor_km":6909.9742427177,"source":"CELESTRAK","updated_at":"2026-05-25T13:37:56.211605Z"}}